Погода в Широком Буераке

Россия / Саратовская область     51°19′11″N   45°47′12″E
В апреле 2022 года жителям России запретили посещать сайт meteo.paraplan.net по решению Генеральной прокуратуры. Аудитория сайта уменьшилась в 10 раз. Владельцы сайта не видят смысла в поддержке погодного сервера в таких условиях. Сайт будет закрыт в октябре.
темп.,
°C
ветер,
м/с
пор.,
м/с
влажн.,
%
обл.,
%
осадки,
мм/ч
давл.,
гПа
погр.,
м
3 октября, пн
пн301:00+17ююв61272100 0.0 1009250
04:00+16ююв8146899 0.0 1009318
07:00+15юв91657100 0.0 1009425
10:00+16ююв121953100 0.0 1010633
13:00+17ююв121850100 0.0 1011620
16:00+15ю101666100 0.8 1012603
19:00+13ююв71491100 5.5 1015691
22:00+13ю4590100 7.3 101687
4 октября, вт
вт401:00+12ююв229341 0.1 101722
04:00+12юв229085 0.1 101823
07:00+12юв3493100 0.0 101987
10:00+13ююв577888 0.0 1020272
13:00+13ююв5890100 1.2 1020311
16:00+12юв61183100 5.0 1021656
19:00+12вюв367399 0.0 1021207
22:00+11ююв5127871 0.0 1022667
5 октября, ср
ср501:00+11юв398167 0.0 1021528
04:00+11в4679100 0.0 1020195
07:00+11юв2475100 0.1 1020103
10:00+13ю577364 0.1 1020336
13:00+15ю6773100 0.0 1019406
16:00+15ю5774100 0.1 1019461
19:00+13ююз57877 1.1 1019122
22:00+12зюз36730 1.3 1020101
6 октября, чт
чт601:00+11зюз3671100 0.0 1019140
04:00+10зюз4674100 0.0 1019191
07:00+9з6108467 0.0 1019508
10:00+10зсз796114 0.0 10201023
13:00+12зсз795441 0.0 10201560
16:00+13зсз685439 0.0 1020748
19:00+11зсз51071100 0.1 1021844
22:00+12зюз61171100 0.1 1020626
7 октября, пт
пт701:00+12з81379100 0.1 1020545
04:00+12зюз71278100 0.2 1019409
07:00+12зюз61277100 0.1 1019372
10:00+13з711730 0.1 1019428
13:00+16зсз796421 0.0 1019516
16:00+16сз686589 0.0 1020523
19:00+14з576849 0.0 1021149
22:00+12сз47840 0.0 1022134